| time (UTC) | temp F | wind direction | speed MPH | gust MPH | rain 1hr in | rain 24hr in | rain mn in | humidity % | barometer mb |
| 20260504184538 | 65 | 164 | 7.0 | 19.0 | 0.00 | 0.00 | 0.00 | 50 | 1011.9 |
| 20260504183035 | 64 | 208 | 10.0 | 22.0 | 0.00 | 0.00 | 0.00 | 50 | 1012.1 |
| 20260504181543 | 64 | 122 | 9.0 | 22.0 | 0.00 | 0.00 | 0.00 | 50 | 1012.3 |
| 20260504180041 | 64 | 153 | 7.0 | 18.0 | 0.00 | 0.00 | 0.00 | 52 | 1012.4 |
| 20260504174540 | 64 | 217 | 8.0 | 18.0 | 0.00 | 0.00 | 0.00 | 55 | 1012.4 |
| 20260504173038 | 63 | 184 | 10.0 | 20.0 | 0.00 | 0.00 | 0.00 | 52 | 1012.4 |
| 20260504171538 | 63 | 247 | 9.0 | 18.0 | 0.00 | 0.00 | 0.00 | 50 | 1012.5 |
| 20260504081537 | 49 | 227 | 1.0 | 7.0 | 0.00 | 0.00 | 0.00 | 60 | 1013.9 |
| 20260504044539 | 44 | 0 | 0.0 | 4.0 | 0.00 | 0.00 | 0.00 | 70 | 1013.1 |
| 20260504043038 | 44 | 0 | 0.0 | 1.0 | 0.00 | 0.00 | 0.00 | 69 | 1013.2 |
| 20260504041538 | 44 | 0 | 0.0 | 2.0 | 0.00 | 0.00 | 0.00 | 68 | 1013.1 |
| 20260504040038 | 43 | 204 | 0.0 | 3.0 | 0.00 | 0.00 | 0.00 | 68 | 1013.1 |
| 20260504034542 | 43 | 254 | 0.0 | 3.0 | 0.00 | 0.00 | 0.00 | 71 | 1013.1 |
| 20260504033040 | 43 | 0 | 0.0 | 0.0 | 0.00 | 0.00 | 0.00 | 70 | 1013.1 |
| 20260504031539 | 44 | 0 | 0.0 | 1.0 | 0.00 | 0.00 | 0.00 | 70 | 1013.1 |
| 20260504030042 | 44 | 0 | 0.0 | 0.0 | 0.00 | 0.00 | 0.00 | 67 | 1013.1 |
| 20260504024540 | 44 | 0 | 0.0 | 0.0 | 0.00 | 0.00 | 0.00 | 66 | 1013.0 |
| 20260504023042 | 45 | 0 | 0.0 | 2.0 | 0.00 | 0.00 | 0.00 | 65 | 1013.1 |
| 20260504021540 | 46 | 0 | 0.0 | 0.0 | 0.00 | 0.00 | 0.00 | 62 | 1012.9 |
| 20260504020038 | 46 | 0 | 0.0 | 0.0 | 0.00 | 0.00 | 0.00 | 59 | 1012.9 |
| 20260504014552 | 47 | 0 | 0.0 | 0.0 | 0.00 | 0.00 | 0.00 | 57 | 1012.8 |
| 20260504013041 | 48 | 0 | 0.0 | 0.0 | 0.00 | 0.00 | 0.00 | 56 | 1012.7 |
| 20260504011536 | 49 | 0 | 0.0 | 1.0 | 0.00 | 0.00 | 0.00 | 52 | 1012.7 |
| 20260504010041 | 51 | 0 | 0.0 | 0.0 | 0.00 | 0.00 | 0.00 | 47 | 1012.5 |
| 20260504004540 | 52 | 0 | 0.0 | 0.0 | 0.00 | 0.00 | 0.00 | 40 | 1012.4 |
| 20260504003041 | 52 | 0 | 0.0 | 1.0 | 0.00 | 0.00 | 0.00 | 38 | 1012.2 |
| 20260504001546 | 53 | 254 | 0.0 | 1.0 | 0.00 | 0.00 | 0.00 | 38 | 1011.9 |
| 20260504000043 | 54 | 0 | 0.0 | 0.0 | 0.00 | 0.00 | 0.00 | 35 | 1011.8 |
| 20260503234541 | 55 | 254 | 0.0 | 1.0 | 0.00 | 0.00 | 0.00 | 34 | 1011.6 |
| 20260503233045 | 56 | 267 | 0.0 | 3.0 | 0.00 | 0.00 | 0.00 | 32 | 1011.3 |
| 20260503231543 | 57 | 267 | 0.0 | 3.0 | 0.00 | 0.00 | 0.00 | 32 | 1011.1 |
| 20260503230037 | 57 | 282 | 1.0 | 7.0 | 0.00 | 0.00 | 0.00 | 30 | 1011.1 |
| 20260503224540 | 57 | 286 | 3.0 | 8.0 | 0.00 | 0.00 | 0.00 | 30 | 1011.1 |
| 20260503223036 | 58 | 274 | 3.0 | 9.0 | 0.00 | 0.00 | 0.00 | 30 | 1011.0 |
| 20260503221549 | 58 | 0 | 2.0 | 7.0 | 0.00 | 0.00 | 0.00 | 31 | 1010.8 |
| 20260503220040 | 58 | 288 | 1.0 | 6.0 | 0.00 | 0.00 | 0.00 | 32 | 1010.9 |
| 20260503214537 | 57 | 232 | 3.0 | 9.0 | 0.00 | 0.00 | 0.00 | 31 | 1010.8 |
| 20260503213037 | 57 | 294 | 3.0 | 11.0 | 0.00 | 0.00 | 0.00 | 30 | 1010.6 |
| 20260503211534 | 57 | 278 | 2.0 | 10.0 | 0.00 | 0.00 | 0.00 | 32 | 1010.6 |
| 20260503210050 | 57 | 303 | 3.0 | 10.0 | 0.00 | 0.00 | 0.00 | 32 | 1010.6 |
| 20260503204550 | 58 | 265 | 4.0 | 12.0 | 0.00 | 0.00 | 0.00 | 32 | 1010.4 |
| 20260503203038 | 57 | 228 | 5.0 | 15.0 | 0.00 | 0.00 | 0.00 | 33 | 1010.6 |
| 20260503201538 | 57 | 267 | 6.0 | 15.0 | 0.00 | 0.00 | 0.00 | 33 | 1010.8 |
| 20260503200044 | 57 | 222 | 2.0 | 12.0 | 0.00 | 0.00 | 0.00 | 36 | 1010.8 |
| 20260503194540 | 56 | 298 | 4.0 | 17.0 | 0.00 | 0.00 | 0.00 | 35 | 1011.0 |
| 20260503193039 | 56 | 248 | 4.0 | 13.0 | 0.00 | 0.00 | 0.00 | 36 | 1010.9 |
| 20260503191538 | 56 | 199 | 5.0 | 13.0 | 0.00 | 0.00 | 0.00 | 35 | 1011.0 |
| 20260503190045 | 56 | 293 | 3.0 | 17.0 | 0.00 | 0.00 | 0.00 | 37 | 1011.2 |